User: anonymous   Login
Location: Unspecified
(0.0000°N, 0.0000°E)
Time: 11:14:30
(UTC+00:00)
Language:

DX 1 - Orbit

View from above orbital plane
View from above orbital plane
View from above satellite
View from above satellite

Ground track
Ground track

The orbit data is extracted from the following two-line orbital elements,

1 40071U 14037C   19142.12929318  .00000094  00000-0  19557-4 0  9993
2 40071  98.4213 294.6117 0007695 321.7309  38.3351 14.81263837263178
Epoch (UTC): 22 May 2019 03:06:10
Eccentricity: 0.0007695
inclination: 98.4213°
perigee height: 620 km
apogee height: 631 km
right ascension of ascending node: 294.6117°
argument of perigee: 321.7309°
revolutions per day: 14.81263837
mean anomaly at epoch: 38.3351°
orbit number at epoch: 26317

The dashed part of the orbit path shows where the satellite is in the earth's shadow,  

DLR